Terug naar catalogus

COSMOS 1743

ActiefNavigatiePO
NORAD 16719·PAYLOAD·🇷🇺 Russia

Gelanceerd May 15, 1986 vanaf Plesetsk Cosmodrome

Loading…

Volgende Passages (komende 24 uur)

TLE

VersSource: Space-Track

Epoch: Sep 14, 2026, 08:50 UTC

1 16719U 86034A   26257.36849950  .00062719  00000-0  40248-3 0  9997
2 16719  82.5224 233.2762 0001756  89.4120 270.7347 15.76022307209797

Volg COSMOS 1743 in realtime met AllMySat

Download on the App Store